Location: Moscow
(55.7500°N, 37.5830°E)
Time: 10:04:20
(UTC+03:00)

Vanguard 1 Rocket - Pass Details

Date: 30 November 2021
Orbit: 651 x 4224 km, 34.3° (Epoch: 23 January)

Event Time Altitude Azimuth Distance (km) Brightness Sun altitude
Exits shadow 04:27:34 19° 203° (SSW) 4,432 10.6 -33.2°
Maximum altitude 04:36:45 33° 158° (SSE) 4,475 10.9 -32.0°
Drops below altitude 10° 04:55:45 10° 106° (ESE) 7,285 12.8 -29.3°
Sets 05:02:44 0° 99° (E) 8,462 13.5 -28.3°
